Stillwater, OK

9:59 PM CST on February 17, 2018 (GMT -0600)
Stillwater Municipal

Weather History for KSWO - January, 2014

Change the Weather History Date:

Friday, January 24, 2014

  Actual Average Record
Temperature  
Mean Temperature 23 °F -  
Max Temperature 46 °F 46 °F 75 °F (2017)
Min Temperature 0 °F 24 °F 0 °F (2014)
Degree Days  
Heating Degree Days 42    
Moisture  
Dew Point 4 °F    
Average Humidity 44    
Maximum Humidity 79    
Minimum Humidity 18    
Precipitation  
Precipitation 0.00 in - - ()
Sea Level Pressure  
Sea Level Pressure 30.41 in    
Wind  
Wind Speed 8 mph (SW)    
Max Wind Speed 23 mph    
Max Gust Speed 33 mph    
Visibility 10 miles    
Events      
Averages and records for this station are not official NWS values.
T = Trace of Precipitation, MM = Missing Value Source: NWS Daily Summary

Daily Weather History Graph

Daily Weather History Graph

Search for Another Location

Airport or City:

Trip Planner

Search our weather history database for the weather conditions in past years. The results will help you decide how hot, cold, wet, or windy it might be!

Date:

Astronomy

Jan. 24, 2014 Rise Set
Actual Time 7:34 AM CST 5:46 PM CST
Civil Twilight 7:07 AM CST 6:14 PM CST
Nautical Twilight 6:36 AM CST 6:45 PM CST
Astronomical Twilight 6:05 AM CST 7:15 PM CST
Moon 1:05 AM CST (1/24) 12:04 PM CST (1/24)
Length of Visible Light 11h 06m
Length of Day
10h 11m
Last Quarter, 44% of the Moon is Illuminated
Jan 24
Last Quarter
Jan 30
New
Feb 6
First Quarter
Feb 14
Full
Feb 22
Last Quarter

Hourly Weather History & Observations

Time (CST) Temp. Windchill Dew Point Humidity Pressure Visibility Wind Dir Wind Speed Gust Speed Precip Events Conditions
12:53 AM 1.0 °F - -5.1 °F 75% 30.82 in 10.0 mi Calm Calm - N/A   Clear
1:53 AM -0.9 °F -8.9 °F -6.0 °F 79% 30.79 in 10.0 mi WSW 3.5 mph - N/A   Clear
2:53 AM -0.0 °F - -6.0 °F 76% 30.76 in 10.0 mi Calm Calm - N/A   Clear
3:53 AM 3.0 °F -4.4 °F -5.1 °F 69% 30.73 in 10.0 mi WSW 3.5 mph - N/A   Clear
4:53 AM 1.9 °F -5.6 °F -6.0 °F 69% 30.69 in 10.0 mi SW 3.5 mph - N/A   Clear
5:53 AM 3.0 °F -4.4 °F -5.1 °F 69% 30.66 in 10.0 mi SSW 3.5 mph - N/A   Clear
6:53 AM 3.0 °F -6.4 °F -4.0 °F 73% 30.66 in 10.0 mi SW 4.6 mph - N/A   Clear
7:53 AM 5.0 °F -6.9 °F -2.0 °F 73% 30.63 in 10.0 mi SSW 6.9 mph - N/A   Clear
8:53 AM 17.1 °F 5.0 °F 3.9 °F 56% 30.59 in 10.0 mi SSW 10.4 mph - N/A   Clear
9:53 AM 25.0 °F 11.7 °F -2.0 °F 31% 30.55 in 10.0 mi SSW 17.3 mph 23.0 mph N/A   Clear
10:53 AM 32.0 °F 21.2 °F -7.1 °F 18% 30.49 in 10.0 mi SW 16.1 mph 27.6 mph N/A   Clear
11:53 AM 37.0 °F 26.7 °F -0.0 °F 21% 30.45 in 10.0 mi SSW 19.6 mph 25.3 mph N/A   Clear
12:53 PM 41.0 °F 33.1 °F 3.9 °F 21% 30.37 in 10.0 mi SSW 15.0 mph 26.5 mph N/A   Clear
1:53 PM 43.0 °F 34.2 °F 7.0 °F 23% 30.29 in 10.0 mi SW 20.7 mph 33.4 mph N/A   Clear
2:53 PM 45.0 °F 36.4 °F 9.0 °F 23% 30.23 in 10.0 mi SW 23.0 mph 27.6 mph N/A   Clear
3:53 PM 46.0 °F 38.8 °F 10.9 °F 24% 30.21 in 10.0 mi SW 18.4 mph 27.6 mph N/A   Clear
4:53 PM 45.0 °F 36.9 °F 12.0 °F 26% 30.18 in 10.0 mi SW 20.7 mph 28.8 mph N/A   Clear
5:53 PM 42.1 °F 34.9 °F 12.0 °F 29% 30.16 in 10.0 mi SW 13.8 mph - N/A   Clear
6:53 PM 39.9 °F 33.4 °F 12.9 °F 33% 30.16 in 10.0 mi SW 10.4 mph - N/A   Clear
7:53 PM 39.9 °F 33.9 °F 12.9 °F 33% 30.14 in 10.0 mi SW 9.2 mph - N/A   Clear
8:53 PM 39.9 °F 33.9 °F 12.9 °F 33% 30.10 in 10.0 mi SW 9.2 mph - N/A   Clear
9:53 PM 39.9 °F 32.5 °F 12.0 °F 32% 30.08 in 10.0 mi SW 12.7 mph - N/A   Clear
10:53 PM 39.0 °F 32.3 °F 12.0 °F 33% 30.07 in 10.0 mi WSW 10.4 mph - N/A   Clear
11:53 PM 37.0 °F 31.0 °F 12.0 °F 36% 30.04 in 10.0 mi WSW 8.1 mph - N/A   Clear